Location: Alafon
(8.4500°N, 4.2333°E)
Time: 17:43:02
(UTC+00:00)

SR - Pass Details

Date: 01 August 2021
Orbit: 581 x 874 km, 66.7° (Epoch: 18 September)

Event Time Altitude Azimuth Distance (km) Brightness Sun altitude
Rises 15:57:10 0° 337° (NNW) 2,869 ? 29.2°
Reaches altitude 10° 15:59:27 10° 336° (NNW) 1,936 ? 28.7°
Maximum altitude 16:03:46 76° 250° (WSW) 605 ? 27.6°
Drops below altitude 10° 16:07:57 10° 165° (SSE) 1,888 ? 26.6°
Sets 16:10:10 0° 163° (SSE) 2,791 ? 26.1°
